Regional Weather Roundup
Issued by NWS

Home | Current Version | Previous Version | Graphics & Text | Print | Product List | Glossary On
Versions: 1 2 3 4 5 6 7 8 9 10 11 12 13 14 15 16 17 18 19 20 21 22 23 24 25 26 27 28 29 30 31 32 33 34 35 36 37 38 39 40 41 42 43 44 45 46 47 48 49 50
000
ASUS43 KLOT 252209
RWRIL

ILLINOIS REGIONAL WEATHER ROUNDUP
NATIONAL WEATHER SERVICE CHICAGO/ROMEOVILLE IL
500 PM CDT WED MAY 25 2016

NOTE: "FAIR" INDICATES FEW OR NO CLOUDS BELOW 12,000 FEET WITH NO
SIGNIFICANT WEATHER AND/OR OBSTRUCTIONS TO VISIBILITY.

* THESE STATIONS ARE NOT UNDER NWS QUALITY CONTROL. THEY ALSO MAY NOT
  REPORT WEATHER SUCH AS PRECIPITATION OR FOG.

ILZ001-002-007-009-015-016-024-252300-
NORTHWEST ILLINOIS

CITY           SKY/WX    TMP DP  RH WIND       PRES   REMARKS
MOLINE         MOSUNNY   86  58  38 SW14G21   29.85F HX  85
STERLING*      CLOUDY    84  67  56 SW12G17   29.85F HX  86
SAVANNA*       CLOUDY    85  65  51 S14       29.85F HX  86
$$

ILZ003-004-008-010-011-017-018-252300-
NORTH CENTRAL ILLINOIS

CITY           SKY/WX    TMP DP  RH WIND       PRES   REMARKS
ROCKFORD       CLOUDY    76  68  76 SE17G23   29.87F
FREEPORT*      CLOUDY    81  64  57 S14       29.87F HX  83
ROCHELLE*      CLOUDY    73  60  62 E10       29.87F
DE KALB*       CLOUDY    70  64  82 SE10      29.90F
$$

ILZ005-006-012>014-019>023-252300-
NORTHEAST ILLINOIS

CITY           SKY/WX    TMP DP  RH WIND       PRES   REMARKS
CHICAGO-OHARE  CLOUDY    82  58  43 S10       29.87F THUNDER HX  82
CHICAGO-MIDWAY CLOUDY    88  57  34 S8G18     29.87F THUNDER HX  87
AURORA         TSTM      68  63  84 N13       29.91F
LANSING*       PTSUNNY   85  58  40 S14G21    29.89F HX  84
JOLIET*        TSTM      74  66  75 S6G18     29.87S
WAUKEGAN       CLOUDY    68  59  73 E6        29.90F
DUPAGE AIRPORT TSTM      69  62  78 S17G29    29.89R
KANKAKEE*      LGT RAIN N/A N/A N/A S8        29.91S
WHEELING       CLOUDY    80  60  50 E8        29.88F HX  81
MORRIS*        CLOUDY    85  64  47 S16       29.84S HX  86
ROMEOVILLE*    TSTM      82  60  45 W26G36    29.90R HX  82
NORTHERLY ISL    N/A     67  58  72 NE1         N/A
NORTHERLY ISL    N/A     67  58  72 NE1         N/A
$$

LMZ740>746-252300-
SOUTHERN LAKE MICHIGAN

STATION/POSITION SKY/WX   TEMP    WIND        PRES    VSBY  WAVE
                          AIR SEA DIR/SP/G                  HT/PER
                          (F)     (DEG/KT/KT) (MB)    (MI)  (FT/S)
SOUTHERN BUOY              57 53   80/  6/  6 1012.6F         0
WILMETTE HARBOR            62 57  130/ 10/ 12   N/A           1/ 2
HARRISON CRIB              69      90/ 16/ 17   N/A
BURNHAM HARBOR             67      70/  1/ 11   N/A
CALUMET HARBOR             70      70/  8/ 10 1012.2F
BURNS HARBOR               86     200/ 10/ 16 1012.9F
MICHIGAN CITY              78      10/  5/  8   N/A
MICHIGAN CITY 6N           68 61   50/  6/ 10   N/A           0
ST. JOSEPH                 69 63   30/  2/  4   N/A           0
$$

ILZ025>027-034>036-040-047-049-050-058-095>099-252300-
WEST-CENTRAL ILLINOIS

CITY           SKY/WX    TMP DP  RH WIND       PRES   REMARKS
QUINCY         MOSUNNY   83  61  47 S14       29.88S HX  83
GALESBURG*     PTSUNNY   82  62  50 SW15G21   29.88S HX  83
MACOMB*        MOSUNNY   85  64  48 S13G18    29.89S HX  86
JACKSONVILLE*  PTSUNNY   81  66  59 S16       29.89F HX  83
PITTSFIELD*    CLOUDY    82  68  62 S10       29.90F HX  85
$$

ILZ028>032-037-038-041>044-048-051>054-059>061-252300-
CENTRAL ILLINOIS

CITY           SKY/WX    TMP DP  RH WIND       PRES   REMARKS
PONTIAC        MOSUNNY   85  66  52 S24G31    29.90S HX  87
BLOOMINGTON    PTSUNNY   82  67  60 S23       29.93F HX  84
DECATUR        CLOUDY    80  64  58 S16       29.92F HX  82
PEORIA         PTSUNNY   84  66  54 S18       29.86F HX  86
LACON*         LGT RAIN  80  65  61 SW9G18    29.87S HX  82
LINCOLN*       CLOUDY    80  68  65 S15G25    29.91F HX  82
SPRINGFIELD    CLOUDY    79  66  64 S17       29.91F HX  81
TAYLORVILLE    CLOUDY    80  67  63 S17G23    29.93F HX  82
$$

ILZ033-039-045-046-055>057-062-063-252300-
EAST-CENTRAL ILLINOIS

CITY           SKY/WX    TMP DP  RH WIND       PRES   REMARKS
CHAMPAIGN      CLOUDY    84  61  45 S23G31    29.94F HX  84
RANTOUL*       CLOUDY    84  64  49 SW20G25   29.93F HX  85
MATTOON        MOSUNNY   76  63  64 S18G26    29.96F
PARIS*         CLOUDY    81  65  58 S10       29.98F HX  82
$$

ILZ079-100>102-252300-
SOUTHWEST ILLINOIS

CITY           SKY/WX    TMP DP  RH WIND       PRES   REMARKS
ALTON          MOSUNNY   79  66  65 SE12G17   29.93  HX  81
BELLEVILLE     PTSUNNY   80  70  71 E5        29.93F HX  83
CAHOKIA*       PTSUNNY   81  67  62 S12       29.92F HX  83
SPARTA*        CLOUDY    77  67  72 SE10      29.97S
$$

ILZ064>066-069>071-074>076-080>082-084>086-088>090-092>094-252300-
SOUTH-CENTRAL ILLINOIS

CITY           SKY/WX    TMP DP  RH WIND       PRES   REMARKS
CARBONDALE     CLOUDY    75  67  76 SE12      29.97F
CAIRO*         PTSUNNY   76  71  83 SE8       29.99R
EFFINGHAM*     CLOUDY    77  68  73 S13G20    29.98F
MARION         PTSUNNY   75  68  78 SE12      29.99F
MT. VERNON     MOSUNNY   75  66  73 S12       29.98F
CENTRALIA*     PTSUNNY   76  69  79 S12       29.96F
SALEM*         CLOUDY    78  68  71 S13       29.97F
METROPOLIS*    CLOUDY    74  71  89 SE5       30.00F
$$

ILZ067-068-072-073-078-083-087-091-252300-
SOUTHEAST ILLINOIS

CITY           SKY/WX    TMP DP  RH WIND       PRES   REMARKS
LAWRENCEVILLE  CLOUDY    74  64  71 S12       30.01F
FLORA*         CLOUDY    78  69  73 S15       29.98F HX  80
FAIRFIELD*     CLOUDY    76  67  74 S13       29.97F
HARRISBURG*    CLOUDY    74  69  85 SE8       30.00F
ROBINSON*      CLOUDY    73  65  75 S10       30.02S
CARMI*         MOSUNNY   74  70  86 S15       30.00F
$$

ABBREVIATIONS USED IN REMARKS
   TC - TEMPERATURE IN CELSIUS
  WCI - WIND CHILL INDEX
   HX - HEAT INDEX
  VSB - VISIBILITY
$$





USA.gov is the U.S. government's official web portal to all federal, state and local government web resources and services.